Location: ???????
(52.3000°N, 54.4667°E)
Time: 09:58:36
(UTC+00:00)

Cosmos 2366 rocket - Pass Details

Date: 24 January 2020
Orbit: 956 x 996 km, 82.9° (Epoch: 18 February)

Event Time Altitude Azimuth Distance (km) Brightness Sun altitude
Rises 14:59:01 0° 186° (S) 3,649 7.2 -18.9°
Reaches altitude 10° 15:01:30 10° 186° (S) 2,712 6.5 -19.2°
Maximum altitude 15:07:44 87° 98° (E) 989 3.9 -20.2°
Drops below altitude 10° 15:14:04 10° 11° (N) 2,759 6.2 -21.1°
Sets 15:16:37 0° 11° (N) 3,716 6.9 -21.5°
